Flag for U.S.A. Weather past 2 weeks in Brattleboro, Vermont, U.S.A.

Now
32 °F

Overcast.


Feels Like: 23 °F
Forecast: 24 / 34 °F
Wind: 12 mph from North

Location: Keene / Dillant

Current Time: Mar 28, 2015 at 7:35:07 AM

Latest Report: Mar 28, 2015 at 6:55 AM


Visibility: 10 mi

Pressure: 29.77 "Hg

Humidity: 69%

Dew point: 23 °F

Location of BrattleboroLocation

Historic Weather in Brattleboro — Graph

°F

Brattleboro temperature yesterday

Maximum temperature yesterday: 43 °F (at 1:35 PM)
Minimum temperature yesterday: 32 °F (at 10:15 PM)
Average temperature yesterday: 38 °F

Past Weeks' High & Low Weather Summary

 TemperatureHumidityPressure
High48 °F (Mar 17, 2:55 PM)100% (Mar 14, 3:35 PM)30.62 "Hg (Mar 14, 3:35 PM)
Low10 °F (Mar 24, 6:15 AM)22% (Mar 13, 4:15 PM)29.41 "Hg (Mar 17, 2:35 PM)
Average29 °F61%30.00 "Hg
* Reported Mar 13 6:15 AM — Mar 28 6:35 AM, Brattleboro, Weather by CustomWeather, © 2015

Note: Actual official high and low records may vary slightly from our data, if they occured in-between our weather recording intervals... More about our weather records

Advertising

Brattleboro weather history for previous 24 hours

 ConditionsComfort  
Time TempWeatherWind HumidityBarometerVisibility
6:35 AM
Sat, Mar 28
34 °FOvercast.10 mph65%29.77 "Hg10 mi
6:15 AM34 °FOvercast.13 mph70%29.76 "Hg10 mi
5:55 AM34 °FOvercast.10 mph75%29.76 "Hg10 mi
5:35 AM34 °FMostly cloudy.9 mph75%29.76 "Hg10 mi
5:15 AM34 °FMostly cloudy.10 mph75%29.75 "Hg10 mi
4:55 AM34 °FMostly cloudy.9 mph75%29.75 "Hg10 mi
4:35 AM34 °FOvercast.7 mph75%29.75 "Hg10 mi
4:15 AM34 °FOvercast.9 mph75%29.75 "Hg10 mi
3:55 AM34 °FMostly cloudy.7 mph75%29.75 "Hg10 mi
3:35 AM34 °FPassing clouds.7 mph75%29.75 "Hg10 mi
3:15 AM34 °FOvercast.8 mph81%29.75 "Hg10 mi
2:55 AM36 °FPassing clouds.8 mph75%29.77 "Hg10 mi
2:35 AM36 °FPassing clouds.8 mph75%29.77 "Hg10 mi
2:15 AM36 °FOvercast.5 mph75%29.78 "Hg10 mi
1:55 AM34 °FOvercast.3 mph81%29.77 "Hg10 mi
1:35 AM34 °FOvercast.No wind81%29.77 "Hg10 mi
1:15 AM34 °FOvercast.No wind81%29.77 "Hg10 mi
12:55 AM32 °FOvercast.No wind93%29.78 "Hg10 mi
12:35 AM32 °FOvercast.No wind87%29.78 "Hg10 mi
11:35 PM
Fri, Mar 27
32 °FOvercast.No wind87%29.78 "Hg10 mi
11:15 PM32 °FOvercast.No wind87%29.77 "Hg10 mi
10:55 PM32 °FOvercast.No wind87%29.77 "Hg10 mi
10:35 PM32 °FOvercast.No wind87%29.77 "Hg10 mi
10:15 PM32 °FOvercast.No wind87%29.76 "Hg10 mi
9:55 PM34 °FPassing clouds.No wind81%29.76 "Hg10 mi
9:35 PM34 °FPassing clouds.No wind81%29.75 "Hg10 mi
9:15 PM36 °FPassing clouds.No wind75%29.76 "Hg10 mi
8:55 PM37 °FPassing clouds.No wind70%29.75 "Hg10 mi
8:35 PM39 °FOvercast.8 mph70%29.75 "Hg10 mi
8:15 PM39 °FOvercast.8 mph70%29.75 "Hg10 mi
7:55 PM39 °FOvercast.8 mph70%29.73 "Hg10 mi
7:35 PM39 °FOvercast.7 mph65%29.73 "Hg10 mi
7:15 PM43 °FOvercast.7 mph61%29.73 "Hg10 mi
6:55 PM39 °FBroken clouds.No wind75%29.72 "Hg10 mi
6:35 PM43 °FPassing clouds.No wind61%29.72 "Hg10 mi
6:15 PM43 °FScattered clouds.No wind61%29.71 "Hg10 mi
5:55 PM43 °FSunny.3 mph61%29.70 "Hg10 mi
5:15 PM43 °FSunny.3 mph61%29.69 "Hg10 mi
4:55 PM43 °FScattered clouds.5 mph61%29.70 "Hg10 mi
4:35 PM43 °FOvercast.No wind61%29.71 "Hg10 mi
4:15 PM43 °FOvercast.6 mph61%29.68 "Hg10 mi
3:55 PM43 °FOvercast.6 mph61%29.68 "Hg10 mi
3:35 PM43 °FOvercast.8 mph61%29.70 "Hg10 mi
3:15 PM43 °FMostly cloudy.10 mph71%29.68 "Hg10 mi
2:55 PM43 °FOvercast.7 mph66%29.69 "Hg10 mi
2:35 PM43 °FMostly cloudy.6 mph66%29.68 "Hg10 mi
2:15 PM43 °FMostly cloudy.7 mph61%29.69 "Hg10 mi
1:55 PM43 °FOvercast.6 mph66%29.69 "Hg10 mi
1:35 PM43 °FBroken clouds.7 mph71%29.69 "Hg10 mi
1:15 PM41 °FPartly sunny.5 mph76%29.69 "Hg10 mi
12:55 PM41 °FBroken clouds.No wind76%29.70 "Hg10 mi
12:35 PM39 °FPartly sunny.3 mph81%29.71 "Hg10 mi
12:15 PM39 °FScattered clouds.5 mph81%29.72 "Hg10 mi
11:55 AM39 °FPassing clouds.7 mph81%29.72 "Hg10 mi
11:35 AM39 °FBroken clouds.6 mph81%29.71 "Hg10 mi
11:15 AM39 °FScattered clouds.7 mph81%29.72 "Hg10 mi
10:55 AM37 °FScattered clouds.5 mph93%29.73 "Hg10 mi
10:35 AM37 °FOvercast.5 mph93%29.74 "Hg10 mi
10:15 AM37 °FOvercast.N/A87%29.75 "Hg10 mi
9:55 AM36 °FPartly sunny.No wind93%29.74 "Hg10 mi
9:35 AM36 °FPassing clouds.3 mph93%29.73 "Hg10 mi
9:15 AM36 °FPassing clouds.No wind93%29.72 "Hg10 mi
8:55 AM36 °FPartly sunny.No wind93%29.73 "Hg2 mi
8:35 AM36 °FMore clouds than sun.No wind93%29.74 "Hg1 mi
8:15 AM36 °FBroken clouds.No wind93%29.72 "Hg3 mi
7:55 AM34 °FMostly cloudy.No wind100%29.74 "Hg1 mi
7:35 AM34 °FMostly cloudy.No wind100%29.75 "Hg5 mi
7:15 AM34 °FMostly cloudy.No wind93%29.75 "Hg3 mi
Weather by CustomWeather, © 2015

See weather overviewHow to use our weather pages